Gillette, WY (82716)

7:03 AM MDT on October 24, 2014 (GMT -0600)
RAWS ECHETA WY US | Change Station
CLOSE
Current Station
Personal Weather Station
Location: Gillette, WY
Elevation: 4396 ft
Nearby Weather Stations

Elev 4396 ft 44.47 °N, 105.84 °W | Updated 1 hour ago

Clear
Clear
54 °F
Feels Like 54 °F
N
6
Wind Variable Wind from SSE
Gusts 9.0 mph

Today
High -- | Low -- °F
--% Chance of Precip.
Yesterday
High -- | Low -- °F
Precip. -- in
7:29 AM 6:03 PM
New Moon, 0% visible
Pressure 29.97 in
Visibility 10.0 miles
Clouds Clear
Dew Point 24 °F
Humidity 31%
Rainfall 0.00 in
Snow Depth Not available.
UV 0 out of 12
Pollen 1.60 out of 12
Air Quality Not available.
Flu Activity Sporadic
METAR KGCC 241253Z AUTO 00000KT 10SM CLR 12/M04 A3000 RMK AO2 SLP147 T01221044 $

More Conditions Fewer Conditions

Pressure 29.97 in
Visibility 10.0 miles
Clouds Clear
Dew Point 24 °F
Humidity 31%
Rainfall 0.00 in
Snow Depth Not available.
UV 0 out of 12
Pollen 1.60 out of 12
Air Quality Not available.
Flu Activity Sporadic
METAR KGCC 241253Z AUTO 00000KT 10SM CLR 12/M04 A3000 RMK AO2 SLP147 T01221044 $

More Conditions Fewer Conditions

10-Day Weather Forecast

Almanac

Astronomy

Oct. 24, 2014 Rise Set
Actual Time 7:29 AM MDT 6:03 PM MDT
Civil Twilight 6:59 AM MDT 6:33 PM MDT
Nautical Twilight 6:25 AM MDT 7:07 PM MDT
Astronomical Twilight 5:52 AM MDT 7:40 PM MDT
Moon 8:12 AM MDT 6:43 PM MDT
Length of Visible Light 11h 33m
Length of Day
10h 33m
Tomorrow will be 2m 53s shorter.
New Moon, 0% of the Moon is Illuminated
Today
New Moon
Oct 30
First Quarter
Nov 6
Full
Nov 14
Last Quarter
Nov 22
New

Today's Extremes

State Highs State Lows

Community

WunderPhotos

Upload Photos

1,764,543 photos uploaded!

Nearby

Snow Depth

Station Depth Elevation
Cole Canyon 1 in 5910 ft
Cloud Peak Reservoir 0 in 9860 ft
Big Goose 1 in 7990 ft
Powder River Pass 0 in 9480 ft
Dome Lake 0 in 8880 ft

Earthquake Activity

City Distance Mag. Time & Date
No recent earthquake activity has been reported nearby.
Minimum magnitude displayed is 2.5.

Coastal Water Temperatures

Place Temperature
No Stations Reporting

Nearby Weather Stations